DMSP 5D-2 F13 DEB, 40560

Orbit data source: Space-Track

DMSP 5D-2 F13 DEB, 40560 is space debris in SSO originally from a launch on Fri, 24 Mar 1995 UTC launched from the Air Force Western Test Range (AFWTR). Debris objects in space refer to the collection of defunct objects orbiting the Earth. Examples of debris include non-operational satellites, rocket bodies, and fragments generated from explosions, collisions, or faulty payload assembly.

Loading next visibility...
Identifier
40560, 1995-015DT
Orbit
SSO
Country
Flag of USUS
Related business
Manufacturer
Unknown
Mission
Spacecraft
Bus & Motor
Unknown
Mass
Unknown
Launch date (UTC)
1995-03-24 (31 years ago)
Launch vehicle
Unknown
Launch site
Air Force Western Test Range (AFWTR)
Object type
Payload
Rocket body
Debris
Shape & HBR
Unknown shape, 0.1 m
Radar Cross Section
Small (<0.1 m²)

Expand to show TLE details & history
Last TLE update: 11 hours ago

TLE from 11 hours ago
0 DMSP 5D-2 F13 DEB
1 40560U 95015DT  25343.39453312  .00008520  00000-0  25501-2 0  9992
2 40560  98.6137  20.1452 0011332  75.1515 285.0928 14.43061254556032
Epoch: 2025-12-09T09:28Z
TLE epoch observation values (Epoch: 2025-12-09T09:28:07.661Z)
Latitude
-0.00012°
Longitude
159.73346°
Altitude
749.256 km
Speed
7.481 km/s
True Right ascension
01h 20m 34s
True Declination
0° 00' 00"
Sunlit
Object was in full shadow at epoch
Visualization orbit readout
Latitude
Unknown
Longitude
Unknown
Altitude
Unknown
Speed
Unknown
Apparent Right ascension
Unknown
Apparent Declination
Unknown
Sunlit
N/A
Visualization observer readout
Local Sidereal Time
18:34:04
Azimuth
Unknown
Elevation
Unknown
Doppler factor
Unknown
Orbital elements
Apogee altitude
753.598 km
Perigee altitude
737.453 km
Semi-major axis
7,123.662 km
Eccentricity
0.00113
Inclination
98.6137°
RAAN
20.1452°
Arg. of periapsis
75.1515°
True anomaly
284.96738°
Mean anomaly
285.0928°
Eccentric anomaly
285.03009°
Mean motion
3.60984 °/min
Orbital period
99.73 mins
BSTAR
0.0025501
Loading maneuver chart data...
Computing Atmospheric mass density...

Documentation

Showing up to 5 results
|